Location: Arborea
(39.7744°N, 8.5819°E)
Time: 18:50:20
(UTC+00:00)

Cosmos 332 Rocket - Pass Details

Date: 04 June 2022
Orbit: 681 x 703 km, 74.0° (Epoch: 29 June)

Event Time Altitude Azimuth Distance (km) Brightness Sun altitude
Exits shadow 22:53:10 67° 328° (NNW) 739 4.0 -27.3°
Drops below altitude 10° 22:57:33 10° 15° (NNE) 2,131 7.1 -27.4°
Sets 22:59:53 0° 17° (NNE) 3,052 8.1 -27.5°
